Change the Weather History Date:

Monday, March 25, 2013

  Actual Average Record
Temperature  
Mean Temperature 34 °F -  
Max Temperature 35 °F 51 °F 62 °F (2003)
Min Temperature 33 °F 42 °F 33 °F (2013)
Degree Days  
Heating Degree Days 31    
Moisture  
Dew Point 24 °F    
Average Humidity 66    
Maximum Humidity 70    
Minimum Humidity 56    
Precipitation  
Precipitation 0.00 in - - ()
Sea Level Pressure  
Sea Level Pressure 29.96 in    
Wind  
Wind Speed 10 mph ()    
Max Wind Speed 18 mph    
Max Gust Speed 28 mph    
Visibility 6.2 miles    
Events      
Averages and records for this station are not official NWS values.
T = Trace of Precipitation, MM = Missing Value Source: Averaged Metar Reports

Daily Weather History Graph

Daily Weather History Graph

Search for Another Location

Airport or City:

Trip Planner

Search our weather history database for the weather conditions in past years. The results will help you decide how hot, cold, wet, or windy it might be!

Date:

Astronomy

Mar. 25, 2013 Rise Set
Actual Time 5:50 AM GMT 6:21 PM GMT
Civil Twilight 5:17 AM GMT 6:55 PM GMT
Nautical Twilight 4:37 AM GMT 7:35 PM GMT
Astronomical Twilight 3:55 AM GMT 8:17 PM GMT
Moon 4:29 PM GMT (3/25) 4:37 AM GMT (3/25)
Length of Visible Light 13h 37m
Length of Day
12h 30m
Waxing Gibbous, 96% of the Moon is Illuminated
Mar 25
Waxing Gibbous
Mar 27
Full
Apr 3
Last Quarter
Apr 10
New
Apr 18
First Quarter

Hourly Weather History & Observations

Time (GMT) Temp. Windchill Dew Point Humidity Pressure Visibility Wind Dir Wind Speed Gust Speed Precip Events Conditions
12:20 AM 35.6 °F 29.9 °F 21.2 °F 56% 29.95 in 6.2 mi NE 6.9 mph - N/A   Unknown
12:50 AM 35.6 °F 29.2 °F 21.2 °F 56% 29.95 in 6.2 mi NE 8.1 mph - N/A   Unknown
1:20 AM 33.8 °F 26.4 °F 21.2 °F 60% 29.95 in 6.2 mi NE 9.2 mph - N/A   Unknown
1:50 AM 35.6 °F 27.5 °F 23.0 °F 60% 29.95 in 6.2 mi ENE 11.5 mph - N/A   Unknown
2:20 AM 33.8 °F 26.4 °F 23.0 °F 65% 29.95 in 6.2 mi ENE 9.2 mph - N/A   Unknown
2:50 AM 33.8 °F 26.4 °F 23.0 °F 65% 29.95 in 6.2 mi NE 9.2 mph - N/A   Partly Cloudy
3:20 AM 33.8 °F 25.8 °F 21.2 °F 60% 29.95 in 6.2 mi NE 10.4 mph - N/A   Partly Cloudy
3:50 AM 33.8 °F 25.8 °F 23.0 °F 65% 29.95 in 6.2 mi ENE 10.4 mph - N/A   Mostly Cloudy
4:20 AM 33.8 °F 25.8 °F 23.0 °F 65% 29.95 in 6.2 mi NE 10.4 mph - N/A   Mostly Cloudy
4:50 AM 33.8 °F 25.8 °F 23.0 °F 65% 29.95 in 6.2 mi ENE 10.4 mph - N/A   Overcast
5:20 AM 33.8 °F 25.8 °F 23.0 °F 65% 29.95 in 6.2 mi NE 10.4 mph - N/A   Overcast
5:50 AM 33.8 °F 25.8 °F 23.0 °F 65% 29.98 in 6.2 mi NE 10.4 mph - N/A   Scattered Clouds
6:20 AM 33.8 °F 26.4 °F 23.0 °F 65% 29.98 in 6.2 mi NE 9.2 mph - N/A   Mostly Cloudy
6:50 AM 33.8 °F 26.4 °F 23.0 °F 65% 29.98 in 6.2 mi NE 9.2 mph - N/A   Mostly Cloudy
7:20 AM 33.8 °F 25.3 °F 23.0 °F 65% 29.98 in 6.2 mi ENE 11.5 mph - N/A   Mostly Cloudy
7:50 AM 33.8 °F 24.8 °F 24.8 °F 70% 29.98 in 6.2 mi ENE 12.7 mph - N/A   Mostly Cloudy
8:20 AM 33.8 °F 23.5 °F 24.8 °F 70% 29.98 in 6.2 mi ENE 16.1 mph - N/A   Mostly Cloudy
8:50 AM 33.8 °F 23.5 °F 24.8 °F 70% 29.98 in 6.2 mi ENE 16.1 mph - N/A   Mostly Cloudy
9:20 AM 33.8 °F 24.3 °F 24.8 °F 70% 29.98 in 6.2 mi ENE 13.8 mph - N/A   Mostly Cloudy
9:50 AM 33.8 °F 23.9 °F 24.8 °F 70% 29.98 in 6.2 mi ENE 15.0 mph - N/A   Mostly Cloudy
10:20 AM 33.8 °F 22.8 °F 24.8 °F 70% 29.98 in 6.2 mi ENE 18.4 mph - N/A   Mostly Cloudy
10:50 AM 33.8 °F 23.9 °F 24.8 °F 70% 29.98 in 6.2 mi ENE 15.0 mph - N/A   Mostly Cloudy
11:20 AM 33.8 °F 23.9 °F 23.0 °F 65% 29.98 in 6.2 mi ENE 15.0 mph - N/A   Mostly Cloudy
11:50 AM 33.8 °F 23.9 °F 24.8 °F 70% 29.98 in 6.2 mi ENE 15.0 mph - N/A   Mostly Cloudy
12:20 PM 33.8 °F 24.3 °F 24.8 °F 70% 29.98 in 6.2 mi ENE 13.8 mph - N/A   Mostly Cloudy
12:50 PM 33.8 °F 24.3 °F 24.8 °F 70% 29.98 in 6.2 mi ENE 13.8 mph - N/A   Mostly Cloudy
1:20 PM 33.8 °F 23.9 °F 24.8 °F 70% 29.98 in 6.2 mi ENE 15.0 mph - N/A   Mostly Cloudy
1:50 PM 33.8 °F 23.2 °F 24.8 °F 70% 29.95 in 6.2 mi ENE 17.3 mph - N/A   Mostly Cloudy
2:20 PM 33.8 °F 23.2 °F 24.8 °F 70% 29.98 in 6.2 mi ENE 17.3 mph - N/A   Mostly Cloudy
2:50 PM 33.8 °F 23.5 °F 23.0 °F 65% 29.95 in 6.2 mi ENE 16.1 mph 27.6 mph N/A   Mostly Cloudy
3:20 PM 33.8 °F 23.5 °F 23.0 °F 65% 29.95 in 6.2 mi ENE 16.1 mph - N/A   Mostly Cloudy
3:50 PM 33.8 °F 24.3 °F 24.8 °F 70% 29.95 in 6.2 mi ENE 13.8 mph - N/A   Mostly Cloudy
4:20 PM 33.8 °F 25.3 °F 24.8 °F 70% 29.95 in 6.2 mi ENE 11.5 mph - N/A   Mostly Cloudy
4:50 PM 33.8 °F 23.9 °F 23.0 °F 65% 29.95 in 6.2 mi ENE 15.0 mph - N/A   Mostly Cloudy
5:20 PM 35.6 °F 27.5 °F 23.0 °F 60% 29.95 in 6.2 mi ENE 11.5 mph - N/A   Mostly Cloudy
5:50 PM 35.6 °F 27.1 °F 23.0 °F 60% 29.95 in 6.2 mi ENE 12.7 mph - N/A   Scattered Clouds
6:20 PM 35.6 °F 27.5 °F 23.0 °F 60% 29.95 in 6.2 mi NE 11.5 mph - N/A   Scattered Clouds
6:50 PM 35.6 °F 27.5 °F 23.0 °F 60% 29.95 in 6.2 mi NE 11.5 mph - N/A   Scattered Clouds
7:20 PM 33.8 °F 25.3 °F 23.0 °F 65% 29.95 in 6.2 mi NE 11.5 mph - N/A   Partly Cloudy
7:50 PM 35.6 °F 28.6 °F 23.0 °F 60% 29.95 in - NE 9.2 mph - N/A   Clear
8:20 PM 35.6 °F 28.6 °F 23.0 °F 60% 29.95 in - NNE 9.2 mph - N/A   Clear
8:50 PM 33.8 °F 26.4 °F 24.8 °F 70% 29.95 in - NNE 9.2 mph - N/A   Clear
9:20 PM 33.8 °F 27.0 °F 24.8 °F 70% 29.95 in - NNE 8.1 mph - N/A   Clear
9:50 PM 33.8 °F 25.8 °F 24.8 °F 70% 29.95 in 6.2 mi NNE 10.4 mph - N/A   Unknown
10:20 PM 33.8 °F 26.4 °F 24.8 °F 70% 29.92 in 6.2 mi NNE 9.2 mph - N/A   Unknown
10:50 PM 33.8 °F 27.0 °F 24.8 °F 70% 29.92 in 6.2 mi NNE 8.1 mph - N/A   Unknown
11:20 PM 33.8 °F 26.4 °F 24.8 °F 70% 29.92 in 6.2 mi NNE 9.2 mph - N/A   Unknown
11:50 PM 33.8 °F 27.0 °F 24.8 °F 70% 29.92 in 6.2 mi NNE 8.1 mph - N/A   Unknown